Flight Track Log - Related Links

Times and Time Zones

All times are in EDT time to prevent confusion due to time zone crossing. See the ASQ5814 flight status page for this flight to view local times or setup timezone preferences in your user account.

Time Position Orientation Groundspeed Altitude Reporting Facility
EDT Latitude Longitude Course Direction KTS MPH feet Rate Location/Type
Fri 10:42:06 AM 40.0025 -82.9728 270° West 185 213 3,100  Level Indianapolis Center
Fri 10:43:30 AM 40.0353 -83.0247 310° West 210 242 6,000 1,862 Climbing Indianapolis Center
Fri 10:44:00 AM 40.2998 -82.6573 29° Northeast  Level FlightAware Approximate
Fri 10:44:31 AM 40.0856 -82.9719 39° Northeast 231 266 7,600  Level Indianapolis Center
Fri 10:45:00 AM 40.3824 -82.6039 25° Northeast  Level FlightAware Approximate
Fri 10:45:34 AM 40.1506 -82.8975 41° Northeast 261 300 10,000  Level Indianapolis Center
Fri 10:46:00 AM 40.4675 -82.5579 21° North  Level FlightAware Approximate
Fri 10:46:36 AM 40.2147 -82.8233 41° Northeast 309 356 10,800  Level Indianapolis Center
Fri 10:47:00 AM 40.5651 -82.5100 19° North  Level FlightAware Approximate
Fri 10:47:36 AM 40.2903 -82.7381 41° Northeast 337 388 12,400  Level Indianapolis Center
Fri 10:48:41 AM 40.3697 -82.6697 33° Northeast 345 397 14,000 1,536 Climbing Indianapolis Center
Fri 10:49:41 AM 40.4594 -82.6233 21° North 341 392 15,600 1,500 Climbing Indianapolis Center
Fri 10:50:45 AM 40.5497 -82.5778 21° North 341 392 17,100 1,210 Climbing Indianapolis Center
Fri 10:51:45 AM 40.6400 -82.5308 22° Northeast 345 397 18,100 1,065 Climbing Indianapolis Center
Fri 10:52:49 AM 40.7336 -82.4839 21° North 353 406 19,300 1,161 Climbing Indianapolis Center
Fri 10:53:49 AM 40.8275 -82.4339 22° Northeast 360 414 20,500 1,516 Climbing Indianapolis Center
Fri 10:54:24 AM 40.8928 -82.4014 21° North 354 407 21,700 1,832 Climbing Cleveland Center
Fri 10:55:24 AM 40.9853 -82.3544 21° North 354 407 23,400 1,650 Climbing Cleveland Center
Fri 10:56:24 AM 41.0733 -82.3100 21° North 354 407 25,000 1,450 Climbing Cleveland Center
Fri 10:57:24 AM 41.1639 -82.2628 21° North 349 402 26,300 1,150 Climbing Cleveland Center
Fri 10:58:24 AM 41.2542 -82.2156 21° North 349 402 27,300 900 Climbing Cleveland Center
Fri 10:59:24 AM 41.3361 -82.1733 21° North 344 396 28,100 850 Climbing Cleveland Center
Fri 11:00:24 AM 41.3875 -82.0722 56° Northeast 350 403 29,000 1,000 Climbing Cleveland Center
Fri 11:01:24 AM 41.4225 -81.9344 71° East 343 395 30,100 1,000 Climbing Cleveland Center
Fri 11:02:24 AM 41.4614 -81.8078 68° East 358 412 31,000 450 Climbing Cleveland Center
Fri 11:03:24 AM 41.5025 -81.6589 70° East 379 436 31,000  Level Cleveland Center
Fri 11:04:24 AM 41.5456 -81.5125 69° East 397 457 31,000 -200 Level Cleveland Center
Fri 11:05:24 AM 41.5842 -81.3658 71° East 416 479 30,600 -900 Descending Cleveland Center
Fri 11:06:24 AM 41.6267 -81.2108 70° East 432 497 29,200 -1,250 Descending Cleveland Center
Fri 11:07:24 AM 41.6714 -81.0558 69° East 442 509 28,100 -600 Descending Cleveland Center
Fri 11:08:24 AM 41.7136 -80.9003 70° East 442 509 28,000 -50 Descending Cleveland Center
Fri 11:09:24 AM 41.7533 -80.7614 69° East 447 514 28,000 -350 Level Cleveland Center
Fri 11:10:24 AM 41.7933 -80.5997 72° East 447 514 27,300 -500 Descending Cleveland Center
Fri 11:11:24 AM 41.7869 -80.4411 93° East 431 496 27,000 -150 Descending Cleveland Center
Fri 11:12:24 AM 41.7700 -80.2769 98° East 431 496 27,000  Level Cleveland Center
Fri 11:13:24 AM 41.7528 -80.1128 98° East 441 507 27,000  Level Cleveland Center
Fri 11:14:24 AM 41.7372 -79.9486 97° East 449 517 27,000  Level Cleveland Center
Fri 11:15:24 AM 41.7153 -79.7681 99° East 444 511 27,000  Level Cleveland Center
Fri 11:16:24 AM 41.7014 -79.6042 96° East 450 518 27,000  Level Cleveland Center
Fri 11:17:24 AM 41.6833 -79.4378 98° East 450 518 27,000  Level Cleveland Center
Fri 11:18:24 AM 41.6694 -79.3044 98° East 450 518 27,000  Level Cleveland Center
Fri 11:19:24 AM 41.6461 -79.1047 99° East 450 518 27,000  Level Cleveland Center
Fri 11:20:24 AM 41.6272 -78.9386 99° East 450 518 27,000  Level Cleveland Center
Fri 11:21:24 AM 41.6081 -78.7725 99° East 450 518 27,000  Level Cleveland Center
Fri 11:22:24 AM 41.5886 -78.6064 99° East 450 518 27,000  Level Cleveland Center
Fri 11:23:24 AM 41.5689 -78.4433 99° East 450 518 27,000 -500 Level Cleveland Center
Fri 11:24:24 AM 41.5514 -78.2883 99° East 438 504 26,000 -500 Descending Cleveland Center
Fri 11:25:24 AM 41.5336 -78.1364 99° East 431 496 26,000 -643 Level Cleveland Center
Fri 11:26:16 AM 41.5175 -78.0081 99° East 418 481 24,800 -2,304 Descending New York Center
Fri 11:27:16 AM 41.4972 -77.8619 100° East 418 481 21,700 -2,678 Descending New York Center
Fri 11:28:17 AM 41.4778 -77.7297 101° East 390 449 19,400 -1,339 Descending New York Center
Fri 11:29:17 AM 41.4586 -77.5975 101° East 373 429 19,000 -198 Descending New York Center
Fri 11:30:18 AM 41.4411 -77.4656 100° East 363 418 19,000 -356 Level New York Center
Fri 11:31:15 AM 41.4225 -77.3503 102° East 363 418 18,300 -508 Descending New York Center
Fri 11:32:16 AM 41.4025 -77.2183 101° East 363 418 18,000 -148 Descending New York Center
Fri 11:33:17 AM 41.3847 -77.0867 100° East 363 418 18,000  Level New York Center
Fri 11:34:15 AM 41.3644 -76.9575 102° East 363 418 18,000  Level New York Center
Fri 11:35:15 AM 41.3444 -76.8175 101° East 363 418 18,000  Level New York Center
Fri 11:36:15 AM 41.3083 -76.6678 108° East 382 440 18,000  Level New York Center
Fri 11:37:16 AM 41.2733 -76.5322 109° East 393 452 18,000  Level New York Center
Fri 11:38:17 AM 41.2361 -76.3967 110° East 398 458 18,000  Level New York Center
Fri 11:39:15 AM 41.2042 -76.2753 109° East 387 445 18,000 -203 Level New York Center
Fri 11:40:15 AM 41.1686 -76.1428 110° East 377 434 17,600 -744 Descending New York Center
Fri 11:41:16 AM 41.1331 -76.0106 110° East 362 417 16,500 -1,082 Descending New York Center
Fri 11:42:17 AM 41.0967 -75.8867 111° Southeast 355 409 15,400 -1,261 Descending New York Center
Fri 11:43:15 AM 41.0681 -75.7744 109° East 355 409 14,000 -1,210 Descending New York Center
Fri 11:44:16 AM 41.0336 -75.6508 110° East 355 409 13,000 -492 Descending New York Center
Fri 11:45:17 AM 40.9956 -75.5161 110° East 355 409 13,000 -706 Level New York Center
Fri 11:46:15 AM 40.9625 -75.4011 111° Southeast 350 403 11,600 -1,311 Descending New York Center
Fri 11:47:16 AM 40.9331 -75.3031 112° Southeast 309 356 10,400 -1,438 Descending New York Center
Fri 11:48:16 AM 40.9075 -75.2053 109° East 283 326 8,700 -1,388 Descending New York Center
Fri 11:49:17 AM 40.8817 -75.1131 110° East 277 319 7,600 -857 Descending New York Center
Fri 11:50:15 AM 40.8578 -75.0292 111° Southeast 271 312 7,000 -303 Descending New York Center
Fri 11:51:16 AM 40.8281 -74.9258 111° Southeast 271 312 7,000 -333 Level New York Center
Fri 11:53:15 AM 40.8819 -74.7533 68° East 250 288 6,000 -335 Descending New York Center
Fri 11:54:15 AM 40.8739 -74.6817 98° East 230 265 6,000  Level New York Center
Fri 11:55:19 AM 40.8667 -74.5833 96° East 225 259 6,000  Level New York TRACON
Fri 11:56:19 AM 40.8167 -74.5500 153° Southeast 239 275 6,000  Level New York TRACON
Fri 11:57:19 AM 40.7500 -74.5500 180° South 241 277 6,000  Level New York TRACON
Fri 11:58:19 AM 40.6833 -74.5500 180° South 238 274 6,000  Level New York TRACON
Fri 11:59:19 AM 40.6167 -74.5500 180° South 231 266 6,000  Level New York TRACON
Fri 12:00:19 PM 40.5500 -74.5500 180° South 230 265 6,000 -400 Level New York TRACON
Fri 12:01:19 PM 40.4833 -74.5500 180° South 235 270 5,200 -905 Descending New York TRACON
Fri 12:02:25 PM 40.4167 -74.5000 150° Southeast 220 253 4,100 -571 Descending New York TRACON
Fri 12:03:25 PM 40.3667 -74.4500 143° Southeast 223 257 4,000 -53 Descending New York TRACON
Fri 12:04:19 PM 40.3667 -74.4000 90° East 192 221 4,000  Level New York TRACON
Fri 12:05:25 PM 40.3667 -74.3167 90° East 195 224 4,000 -298 Level New York TRACON
Fri 12:06:20 PM 40.4167 -74.3167 360° North 212 244 3,400 -500 Descending New York TRACON
Fri 12:07:25 PM 40.4667 -74.3333 346° North 178 205 3,000 -202 Descending New York TRACON
Fri 12:08:19 PM 40.5000 -74.3167 21° North 177 204 3,000  Level New York TRACON
Fri 12:09:19 PM 40.5333 -74.2667 49° Northeast 162 186 3,000  Level New York TRACON

Login

Don't have an account? Register now (free) for customized features, flight alerts, and more!